{"data":{"norad_id":59014,"epoch":"2026-05-25T04:51:23.943744Z","epoch_age_seconds":60669,"freshness":"FRESH","line1":"1 59014U 24036S   26145.20236046 -.00003356  00000+0 -10131-3 0  9992","line2":"2 59014  53.1624  83.0169 0001471 111.9550 248.1607 15.30169757127039","mean_motion":15.30169757,"eccentricity":0.0001471,"inclination_deg":53.1624,"raan_deg":83.0169,"arg_perigee_deg":111.955,"mean_anomaly_deg":248.1607,"bstar":-0.00010131,"rev_number":12703,"period_min":94.107205649079,"perigee_km":474.29722968048,"apogee_km":476.31351242604,"semimajor_km":6853.4423710533,"source":"CELESTRAK","updated_at":"2026-05-25T13:38:18.820122Z"}}